ニート彗星

169P/NEAT (2001)

English version
Home page
Updated on March 7, 2020

---------------------------------------------------------------------

・ プロフィール

符号 169P/2002 EX12
発見日 2002年3月15日
発見光度 19.8等
発見者 Near-Earth-Asteroid Tracking Team

・ 写真集

・ 軌道要素

Epoch 2001 June 20.0 TT = JDT 2452080.5
T 2001 July 7.46166 TT                                  MPCW
q   0.6054930            (2000.0)            P               Q
n   0.23457688     Peri.  217.93820     +0.82627391     -0.56312337
a   2.6038297      Node   176.26462     +0.55278962     +0.80633482
e   0.7674606      Incl.   11.31875     +0.10814368     +0.18087629
P   4.20
From 1096 observations 1989 Mar. 7-2015 Mar. 24, mean residual 0".4.

・ 光度変化

        H = 16.0  G = 0.15                [   ,-70]  (              〜2001年 4月28日)
        m1 = 15.8 + 5 logΔ + 20.0 log r  [-70, 55]  (2001年 4月28日〜2001年 8月31日)
        H = 16.0  G = 0.15                [ 55,   ]  (2001年 8月31日〜              )

        ※ 緑色の曲線は、H = 16.0  G = 0.15 の光度曲線です。

---------------------------------------------------------------------

軌道要素はM.P.E.C. 2015-G03に掲載されたものです。
光度グラフはComet for Windowsで作成したものです。

---------------------------------------------------------------------

Copyright(C) Seiichi Yoshida (comet@aerith.net). All rights reserved.